Regional Weather Roundup
Issued by NWS Columbia, SC

Home | Current Version | Previous Version | Text Only | Print | Product List | Glossary On
Versions: 1 2 3 4 5 6 7 8 9 10 11 12 13 14 15 16 17 18 19 20 21 22 23 24 25 26 27 28 29 30 31 32 33 34 35 36 37 38 39 40 41 42 43 44 45 46 47 48 49 50
000
ASUS42 KCAE 240810
RWRCAE
REGIONAL WEATHER ROUNDUP
NATIONAL WEATHER SERVICE COLUMBIA SC
300 AM EST WED JAN 24 2018

NOTE: "FAIR" INDICATES FEW OR NO CLOUDS BELOW 12,000 FEET WITH NO
SIGNIFICANT WEATHER AND/OR OBSTRUCTIONS TO VISIBILITY.

NOT ALL STATIONS ARE QUALITY CONTROLLED BY THE NATIONAL
WEATHER SERVICE. USE DATA WITH CAUTION...ESPECIALLY
DEWPOINT OBSERVATIONS.

SCZ001>056-GAZ040-063>065-077-240900-
...UPSTATE SOUTH CAROLINA...

CITY           SKY/WX    TMP DP  RH WIND       PRES   REMARKS
ANDERSON       FAIR      39  29  67 W9        30.09S WCI  33
LIBERTY        FAIR      32  30  92 SW3       30.08R
SPARTANBURG    FAIR      43  27  52 NW12      30.08R
CLEMSON        FAIR      37  29  72 W7        30.10R WCI  32
GREENVILLE     FAIR      38  29  70 CALM      30.09R
GREENWOOD      FAIR      38  30  73 W3        30.11R
GREER          FAIR      35  29  78 CALM      30.09R
ROCK HILL      FAIR      39  29  67 W6        30.07R WCI  35
CHESTER        FAIR      36  28  75 CALM      30.09R
LAURENS        FAIR      37  32  81 W5        30.09R WCI  34


...CENTRAL SOUTH CAROLINA...

CITY           SKY/WX    TMP DP  RH WIND       PRES   REMARKS
COLUMBIA APT   FAIR      46  33  60 W10       30.09R
COLUMBIA OWENS FAIR      48  31  51 NW7       30.10R
MCENTIRE ANGB  FAIR      37  31  81 NW5       30.08R WCI  33
ORANGEBURG     FAIR      46  31  55 NW6       30.09R
SUMTER SHAW    FAIR      44  30  58 CALM      30.06R
NEWBERRY       FAIR      37  32  81 NW5       30.12R WCI  34
AIKEN          FAIR      39  32  75 W6        30.13R WCI  35
BARNWELL         N/A     45  34  65 W3        30.10R
MANNING        FAIR      45  19  36 MISG      30.08R
CAMDEN         FAIR      41  30  65 CALM      30.08R
LANCASTER      FAIR      36  36 100 CALM      30.08R
WINNSBORO      FAIR      39  32  75 NW6       30.07S WCI  35


...EASTERN AND COASTAL SOUTH CAROLINA...

CITY           SKY/WX    TMP DP  RH WIND       PRES   REMARKS
MYRTLE BEACH   FAIR      47  33  58 W5        30.08R
N MYRTLE BCH   FAIR      44  36  73 CALM      30.05R
CONWAY         FAIR      43  36  75 CALM      30.07R
MARION         FAIR      43  32  65 CALM      30.06S
HARTSVILLE     FAIR      41  32  70 CALM      30.06R
FLORENCE       FAIR      43  32  65 W5        30.07R
DARLINGTON     FAIR      40  33  76 W3        30.07R
CHARLESTON APT FAIR      48  33  56 NW6       30.08R
MOUNT PLEASANT FAIR      46  34  61 CALM      30.08S
WALTERBORO     FAIR      43  32  65 W5        30.10R
BEAUFORT       FAIR      49  34  56 NW9       30.10


...EASTERN GEORGIA...

CITY           SKY/WX    TMP DP  RH WIND       PRES   REMARKS
AUGUSTA BUSH F FAIR      43  31  62 NW5       30.11R
AUGUSTA DANIEL FAIR      45  31  58 W7        30.11R
THOMSON        FAIR      40  30  67 N7        30.17S
WASHINGTON     FAIR      39  30  70 NW9       30.11S WCI  33
CLAXTON        FAIR      46  34  63 W6        30.13S
SYLVANIA       FAIR      42  35  79 NW7       30.12S
STATESBORO     FAIR      45  31  59 NW6       30.12S
SAVANNAH       FAIR      45  32  60 W5        30.12R


...SOUTHERN NORTH CAROLINA...

CITY           SKY/WX    TMP DP  RH WIND       PRES   REMARKS
CHARLOTTE      FAIR      39  28  64 W6        30.06R WCI  35
MONROE         FAIR      40  29  64 SW6       30.05R
WADESBORO      FAIR      35  29  82 SW3       30.06R
ROCKINGHAM     FAIR      40  30  66 W5        30.05R
RUTHERFORDTON  FAIR      39  27  62 W3        30.07S
ASHEVILLE      FAIR      36  25  64 N17G26    30.07R WCI  26

$$



USA.gov is the U.S. government's official web portal to all federal, state and local government web resources and services.